TJS-16

导读

TJS-16即通信技术试验卫星十六号,是中国研制的通信技术试验卫星,于北京时间2025年3月30日00时05分,在文昌航天发射场由长征七号改运载火箭送入预定轨道,发射任务圆满成功。该卫星主要用于开展多频段、高速率卫星通信技术验证,此次任务是长征系列运载火箭的第566次飞行。

Basic Information
目录编号:
63397
目录名称:
TJS-16
国际标识:
2025-064A
轨道中心:
EARTH
卫星名称:
TJS-16
卫星全名:
TJS-16
卫星状态:
在轨 (已飞行534 天)
发射日期:
2025-03-29 UTC
国别 :
中国 (CN)
星等 :
--
This satellite is enrolled in the Space Conjunction Data Service (SCDS) and the current flight risk assessment level is: No High Risk
Orbit Information
数据来源 国际轨道数据 AOE轨道数据
星历时间 2026-09-14T02:30:52+0800
6小时前
查看轨道信息
2026-09-12T17:00:00+0800
1天前
查看轨道信息
半长轴 42164.364km 42164.42km
偏心率 0.0001718 0.0001682
轨道倾角 1.321° 1.317°
近地点辐角 251.387° 253.420°
升交点赤经 80.703° 80.714°
平近点角 99.049° 312.906°
近地点 35778.983km 35779.19km
远地点 35793.471km 35793.376km
周期 1436.078分钟 1436.081分钟
每日圈数 1.002731 1.002729
Detailed Information
使用方式:
暂无
2D Orbit Map
3D Orbit Map
Orbit Altitude Analysis Chart
Orbit Inclination Analysis Chart
Orbit Comprehensive Analysis Chart
View Comprehensive Chart
Miss Distance Evolution Trend with All Objects
Collision Probability Evolution Trend with All Objects